This demonstration page uses our WeatherBlox Daily Observations layout. Learn more.

Left ArrowRight Arrow

Hourly Observations for September 17, 2020

Temp ( °F °C ) Dew Point ( °F °C ) Humidity (%) Winds ( mph kmh ) Pressure ( in mb ) Visibility ( mi km ) Precip ( " mm )
12:51 am 00:51 Clear 74 23.3 35 1.7 24 24 E 8 13 29.89 1012 10 16.0934 0 0
1:51 am 01:51 Clear 75 23.9 37 2.8 25 25 SE 8 13 29.9 1013 10 16.0934 0 0
2:51 am 02:51 Clear 70 21.1 37 2.8 30 30 ESE 8 13 29.91 1013 10 16.0934 0 0
3:51 am 03:51 Clear 72 22.2 37 2.8 28 28 E 8 13 29.92 1013 10 16.0934 0 0
4:51 am 04:51 Clear 73 22.8 36 2.2 26 26 ESE 7 11 29.93 1014 10 16.0934 0 0
5:51 am 05:51 Clear 69 20.6 35 1.7 29 29 E 7 11 29.96 1015 10 16.0934 0 0
6:51 am 06:51 Sunny 71 21.7 36 2.2 28 28 SE 8 13 29.99 1016 10 16.0934 0 0
7:51 am 07:51 Sunny 75 23.9 37 2.8 25 25 SE 9 15 30.01 1016 10 16.0934 0 0
8:51 am 08:51 Sunny 81 27.2 37 2.8 21 21 SSE 9 15 30.02 1017 10 16.0934 0 0
9:51 am 09:51 undefined N/A N/A N/A undefined N/A N/A N/A 0 0
10:51 am 10:51 Sunny 89 31.7 42 5.6 19 19 VRB 7 11 29.98 1015 10 16.0934 0 0
11:51 am 11:51 Sunny 91 32.8 42 5.6 18 18 S 9 15 29.96 1015 10 16.0934 0 0
12:51 pm 12:51 Sunny 92 33.3 44 6.7 19 19 VRB 3 6 29.93 1014 10 16.0934 0 0
1:51 pm 13:51 Sunny 94 34.4 40 4.4 15 15 S 9 15 29.89 1012 10 16.0934 0 0
2:51 pm 14:51 Sunny 93 33.9 40 4.4 16 16 VRB 6 9 29.87 1012 10 16.0934 0 0
3:51 pm 15:51 Sunny 94 34.4 40 4.4 15 15 SSE 7 11 29.85 1011 10 16.0934 0 0
4:51 pm 16:51 Sunny 94 34.4 40 4.4 15 15 S 6 9 29.83 1010 10 16.0934 0 0
5:51 pm 17:51 Sunny 92 33.3 40 4.4 16 16 SSW 8 13 29.84 1011 10 16.0934 0 0
6:51 pm 18:51 Clear 87 30.6 40 4.4 19 19 SSE 5 7 29.86 1011 10 16.0934 0 0
7:51 pm 19:51 Clear 85 29.4 40 4.4 20 20 SSE 10 17 29.88 1012 10 16.0934 0 0
8:51 pm 20:51 Clear 83 28.3 40 4.4 22 22 SE 12 19 29.9 1013 10 16.0934 0 0
9:51 pm 21:51 Clear 78 25.6 37 2.8 23 23 SE 5 7 29.89 1012 10 16.0934 0 0
10:51 pm 22:51 Clear 75 23.9 36 2.2 24 24 ESE 6 9 29.93 1013 10 16.0934 0 0
11:51 pm 23:51 Clear 71 21.7 35 1.7 27 27 ESE 6 9 29.93 1014 10 16.0934 0 0

Powered by AerisWeather